Location: Unspecified
(50.7822°N, 1.1356°W)
Time: 18:57:20
(UTC+00:00)

Cosmos 2058 - Visible Passes

Search period start: 16 January 2018 00:00
Search period end: 26 January 2018 00:00
Orbit: 564 x 584 km, 82.5° (Epoch: 16 January)

Date Brightness Start Highest point End Pass type
(mag) Time Alt. Az. Time Alt. Az. Time Alt. Az.
16 Jan 4.2 05:58:21 10° N 06:02:24 41° ENE 06:06:23 10° SE visible
17 Jan 3.7 06:01:31 10° N 06:05:40 53° ENE 06:09:48 10° SSE visible
18 Jan 3.2 06:04:42 10° N 06:08:56 68° ENE 06:13:07 10° SSE visible
19 Jan 6.0 04:32:54 10° NE 04:34:32 12° ENE 04:36:09 10° E visible
19 Jan 2.9 06:07:55 10° N 06:12:11 88° E 06:16:24 10° S visible
19 Jan 4.8 18:37:12 10° SSE 18:38:15 16° SSE 18:38:15 16° SSE visible
19 Jan 5.9 20:14:21 10° SW 20:14:35 11° SW 20:14:35 11° SW visible
20 Jan 5.9 04:35:31 10° NNE 04:37:55 15° ENE 04:40:20 10° E visible
20 Jan 2.8 06:11:10 10° NNW 06:15:24 73° W 06:19:36 10° S visible
20 Jan 3.7 18:40:11 10° SSE 18:42:56 34° SE 18:42:56 34° SE visible
20 Jan 5.7 20:18:00 10° WSW 20:19:15 16° WSW 20:19:15 16° WSW visible
21 Jan 5.6 04:38:21 10° NNE 04:41:17 18° ENE 04:44:14 10° ESE visible
21 Jan 3.0 06:14:28 10° NNW 06:18:36 56° W 06:22:43 10° S visible
21 Jan 2.9 18:43:14 10° S 18:47:19 56° E 18:47:37 54° ENE visible
21 Jan 5.7 20:21:44 10° WSW 20:23:55 17° WNW 20:23:55 17° WNW visible
22 Jan 5.3 04:41:27 11° NNE 04:44:39 22° ENE 04:47:58 10° ESE visible
22 Jan 3.2 06:17:46 10° NNW 06:21:48 43° W 06:25:47 10° SSW visible
22 Jan 2.8 18:46:21 10° S 18:50:32 73° E 18:52:14 35° NNE visible
22 Jan 5.8 20:25:38 10° W 20:28:01 15° WNW 20:28:33 14° NW visible
23 Jan 4.9 04:45:21 15° NNE 04:47:59 27° ENE 04:51:36 10° SE visible
23 Jan 3.6 06:21:37 13° NNW 06:24:58 34° W 06:28:45 10° SSW visible
23 Jan 4.9 17:16:21 10° E 17:17:32 11° E 17:18:44 10° ENE visible
23 Jan 2.9 18:49:33 10° S 18:53:45 87° W 18:56:47 19° N visible
23 Jan 6.1 20:29:49 10° W 20:31:24 12° WNW 20:33:00 10° NW visible
24 Jan 4.5 04:49:24 23° NNE 04:51:18 34° ENE 04:55:08 10° SE visible
24 Jan 3.9 06:25:41 16° NW 06:28:07 27° W 06:31:39 10° SSW visible
24 Jan 4.6 17:18:24 10° ESE 17:20:37 14° E 17:22:51 10° NE visible
24 Jan 3.2 18:52:49 10° SSW 18:56:59 68° WNW 19:01:13 10° N visible
25 Jan 4.0 04:53:37 36° NE 04:54:35 43° ENE 04:58:36 10° SSE visible
25 Jan 4.1 06:29:54 18° WNW 06:31:15 21° W 06:34:26 10° SW visible
25 Jan 4.4 17:20:53 10° SE 17:23:43 18° E 17:26:34 10° NE visible
25 Jan 3.7 18:56:09 10° SSW 19:00:15 53° WNW 19:04:24 10° N visible
